Location: Newark
(25.6108°S, 54.5803°W)
Time: 08:25:24
(UTC+00:00)

Courier 1B - Pass Details

Date: 28 October 2020
Orbit: 962 x 1209 km, 28.3° (Epoch: 02 December)

Event Time Altitude Azimuth Distance (km) Brightness Sun altitude
Rises 02:57:26 0° 281° (W) 4,022 - -50.7°
Reaches altitude 10° 03:00:13 10° 280° (W) 3,088 - -50.8°
Maximum altitude 03:07:59 84° 191° (SSW) 1,215 - -51.0°
Drops below altitude 10° 03:15:56 10° 102° (ESE) 3,153 - -51.1°
Sets 03:18:48 0° 101° (ESE) 4,110 - -51.1°
